FW3090 Weather Reports


Display with metric or nautical units.
time (UTC)temp
F
wind
direction
speed
MPH
gust
MPH
rain 1hr
in
rain 24hr
in
rain mn
in
humidity
%
barometer
mb
20260503020304 56 234 1.0 3.0 0.00 0.00 0.00 55 1011.4
20260503015759 57 234 1.0 3.0 0.00 0.00 0.00 51 1011.4
20260503015731 57 232 1.0 2.0 0.00 0.00 0.00 48 1011.4
20260503014747 58 232 1.0 2.0 0.00 0.00 0.00 49 1011.4
20260503014241 58 248 1.0 4.0 0.00 0.00 0.00 44 1011.4
20260503013734 58 248 2.0 4.0 0.00 0.00 0.00 45 1011.4
20260503013229 57 250 2.0 3.0 0.00 0.00 0.00 46 1011.4
20260503012951 56 265 1.0 3.0 0.00 0.00 0.00 50 1011.4
20260503012218 56 266 0.0 2.0 0.00 0.00 0.00 52 1011.4
20260503011710 57 265 0.0 2.0 0.00 0.00 0.00 50 1011.5
20260503011205 58 273 0.0 2.0 0.00 0.00 0.00 48 1011.5
20260503010659 58 273 0.0 2.0 0.00 0.00 0.00 47 1011.3
20260503010153 58 273 0.0 0.0 0.00 0.00 0.00 46 1011.4
20260503005646 58 273 0.0 0.0 0.00 0.00 0.00 49 1011.4
20260503005141 58 273 0.0 0.0 0.00 0.00 0.00 49 1011.6
20260503004634 58 273 0.0 0.0 0.00 0.00 0.00 48 1011.6
20260503004129 59 273 0.0 0.0 0.00 0.00 0.00 44 1011.7
20260503003844 60 273 0.0 0.0 0.00 0.00 0.00 39 1011.7
20260503003117 60 273 0.0 2.0 0.00 0.00 0.00 38 1011.8
20260503002617 60 273 0.0 3.0 0.00 0.00 0.00 37 1011.8
20260503002117 60 273 0.0 3.0 0.00 0.00 0.00 37 1011.8
20260503001617 61 284 0.0 1.0 0.00 0.00 0.00 37 1011.9
20260503001117 61 284 1.0 3.0 0.00 0.00 0.00 37 1011.9
20260503000617 61 284 2.0 3.0 0.00 0.00 0.00 37 1012.0
20260503000115 61 259 2.0 3.0 0.00 0.00 0.00 36 1011.9
20260502235839 61 272 2.0 3.0 0.00 0.00 0.00 38 1012.1
20260502235113 62 273 3.0 4.0 0.00 0.00 0.00 37 1012.2
20260502234613 62 273 3.0 7.0 0.00 0.00 0.00 36 1012.2
20260502234113 62 275 4.0 8.0 0.00 0.00 0.00 36 1012.3
20260502233613 62 300 4.0 8.0 0.00 0.00 0.00 33 1012.3
20260502233113 62 293 3.0 6.0 0.00 0.00 0.00 35 1012.4
20260502232613 62 265 3.0 6.0 0.00 0.00 0.00 34 1012.5
20260502232108 62 267 4.0 7.0 0.00 0.00 0.00 35 1012.5
20260502231609 62 254 5.0 8.0 0.00 0.00 0.00 34 1012.5
20260502231113 62 257 6.0 10.0 0.00 0.00 0.00 33 1012.6
20260502230608 62 280 5.0 10.0 0.00 0.00 0.00 33 1012.6
20260502230108 62 303 5.0 9.0 0.00 0.00 0.00 32 1012.7
20260502225608 62 246 5.0 11.0 0.00 0.00 0.00 32 1012.6
20260502225108 63 269 5.0 11.0 0.00 0.00 0.00 32 1012.6
20260502224608 63 252 4.0 9.0 0.00 0.00 0.00 30 1012.7
20260502224110 63 270 4.0 10.0 0.00 0.00 0.00 31 1012.7
20260502223604 63 271 5.0 10.0 0.00 0.00 0.00 31 1012.8
20260502223548 63 209 5.0 10.0 0.00 0.00 0.00 29 1012.8
20260502222604 64 278 5.0 10.0 0.00 0.00 0.00 29 1012.8
20260502222104 63 270 5.0 10.0 0.00 0.00 0.00 31 1012.9
20260502221605 64 292 5.0 10.0 0.00 0.00 0.00 31 1012.8
20260502221104 63 295 4.0 8.0 0.00 0.00 0.00 33 1012.9
20260502220602 63 239 5.0 10.0 0.00 0.00 0.00 32 1013.0
20260502215602 64 222 5.0 11.0 0.00 0.00 0.00 33 1013.1
20260502215056 64 267 5.0 10.0 0.00 0.00 0.00 31 1013.3
20260502214550 64 259 6.0 12.0 0.00 0.00 0.00 31 1013.2
20260502214043 64 273 7.0 12.0 0.00 0.00 0.00 30 1013.2
20260502213538 64 292 6.0 11.0 0.00 0.00 0.00 30 1013.3
20260502213032 64 277 7.0 12.0 0.00 0.00 0.00 30 1013.4
20260502212525 64 259 7.0 12.0 0.00 0.00 0.00 31 1013.6
20260502212019 64 286 6.0 12.0 0.00 0.00 0.00 29 1013.6
20260502211514 63 277 5.0 12.0 0.00 0.00 0.00 33 1013.7
20260502211008 64 249 5.0 11.0 0.00 0.00 0.00 29 1013.7
20260502210731 64 267 7.0 11.0 0.00 0.00 0.00 30 1013.8
20260502205956 64 263 6.0 11.0 0.00 0.00 0.00 31 1013.8
20260502205450 64 246 5.0 11.0 0.00 0.00 0.00 28 1013.9
20260502205205 63 292 6.0 14.0 0.00 0.00 0.00 28 1013.9
20260502204438 64 344 7.0 14.0 0.00 0.00 0.00 32 1014.0
20260502203932 64 255 6.0 12.0 0.00 0.00 0.00 29 1014.2
20260502203425 64 209 7.0 11.0 0.00 0.00 0.00 28 1014.2
20260502202919 63 292 7.0 11.0 0.00 0.00 0.00 29 1014.3
20260502202414 63 279 7.0 11.0 0.00 0.00 0.00 30 1014.4
20260502202127 64 274 7.0 12.0 0.00 0.00 0.00 30 1014.5
20260502201402 63 241 6.0 12.0 0.00 0.00 0.00 30 1014.6
20260502200855 63 242 6.0 9.0 0.00 0.00 0.00 35 1014.6
20260502200350 63 238 7.0 15.0 0.00 0.00 0.00 31 1014.8
20260502195844 63 296 8.0 15.0 0.00 0.00 0.00 29 1014.7
20260502195337 63 238 8.0 13.0 0.00 0.00 0.00 28 1015.0
20260502194831 64 251 6.0 13.0 0.00 0.00 0.00 29 1015.0
20260502194325 64 226 5.0 10.0 0.00 0.00 0.00 30 1015.1
20260502193819 64 309 7.0 14.0 0.00 0.00 0.00 31 1015.2
20260502193313 64 306 6.0 14.0 0.00 0.00 0.00 28 1015.2
20260502192808 63 252 6.0 12.0 0.00 0.00 0.00 33 1015.4
20260502192525 63 301 6.0 13.0 0.00 0.00 0.00 29 1015.4
20260502191756 63 297 7.0 13.0 0.00 0.00 0.00 30 1015.6
20260502191251 63 286 7.0 13.0 0.00 0.00 0.00 30 1015.6
20260502191006 63 309 8.0 14.0 0.00 0.00 0.00 32 1015.7
20260502190237 63 309 9.0 15.0 0.00 0.00 0.00 29 1015.8
20260502185732 63 288 7.0 15.0 0.00 0.00 0.00 30 1015.8
20260502185226 63 309 6.0 14.0 0.00 0.00 0.00 28 1016.0
20260502184720 62 311 7.0 14.0 0.00 0.00 0.00 34 1016.1
20260502184214 62 225 7.0 14.0 0.00 0.00 0.00 32 1016.1
20260502183932 63 234 7.0 14.0 0.00 0.00 0.00 33 1016.1
20260502183202 63 285 7.0 14.0 0.00 0.00 0.00 33 1016.2
20260502182655 62 298 7.0 13.0 0.00 0.00 0.00 31 1016.2
20260502182149 62 279 6.0 12.0 0.00 0.00 0.00 30 1016.3
20260502181646 62 229 5.0 12.0 0.00 0.00 0.00 31 1016.3
20260502181138 60 295 6.0 11.0 0.00 0.00 0.00 37 1016.4
20260502180631 61 271 7.0 11.0 0.00 0.00 0.00 32 1016.5
20260502180125 62 285 6.0 12.0 0.00 0.00 0.00 33 1016.5
20260502170519 61 311 6.0 12.0 0.00 0.00 0.00 35 1017.3
20260502163950 59 315 7.0 13.0 0.00 0.00 0.00 36 1017.6
20260502163443 58 271 8.0 17.0 0.00 0.00 0.00 34 1017.5
20260502162937 57 301 9.0 17.0 0.00 0.00 0.00 33 1017.6
20260502162432 57 311 8.0 17.0 0.00 0.00 0.00 34 1017.8
20260502161926 58 317 8.0 17.0 0.00 0.00 0.00 36 1017.7
20260502161420 59 263 9.0 14.0 0.00 0.00 0.00 34 1017.7
20260502161135 58 252 7.0 17.0 0.00 0.00 0.00 34 1017.8
20260502160848 58 318 7.0 17.0 0.00 0.00 0.00 37 1018.0
20260502152322 55 298 4.0 11.0 0.00 0.00 0.00 43 1018.1
20260502151822 54 294 4.0 9.0 0.00 0.00 0.00 46 1018.2
20260502151322 54 297 4.0 9.0 0.00 0.00 0.00 48 1018.1
20260502150822 53 253 5.0 9.0 0.00 0.00 0.00 48 1018.2
20260502150322 53 221 5.0 9.0 0.00 0.00 0.00 47 1018.2
20260502130310 38 111 0.0 1.0 0.00 0.00 0.00 81 1019.1
20260502123757 35 111 1.0 2.0 0.00 0.00 0.00 85 1019.2
20260502123251 34 111 0.0 2.0 0.00 0.00 0.00 86 1019.3
20260502122744 34 111 0.0 2.0 0.00 0.00 0.00 86 1019.1
20260502122239 33 24 0.0 0.0 0.00 0.00 0.00 86 1019.2
20260502121732 33 24 0.0 0.0 0.00 0.00 0.00 87 1019.0
20260502121227 32 24 0.0 0.0 0.00 0.00 0.00 87 1019.0
20260502120722 32 24 0.0 0.0 0.00 0.00 0.00 87 1019.0
20260502120214 31 24 0.0 1.0 0.00 0.00 0.00 87 1019.1
20260502115932 31 24 0.0 0.0 0.00 0.00 0.00 86 1019.1
20260502115203 30 24 0.0 0.0 0.00 0.00 0.00 86 1019.0
20260502114657 30 24 0.0 0.0 0.00 0.00 0.00 86 1019.0
20260502114416 30 24 0.0 0.0 0.00 0.00 0.00 85 1018.9
20260502113644 30 24 0.0 0.0 0.00 0.00 0.00 85 1019.0
20260502113143 29 24 0.0 0.0 0.00 0.00 0.00 85 1018.9
20260502112629 29 24 0.0 0.0 0.00 0.00 0.00 85 1018.9
20260502112123 30 24 0.0 0.0 0.00 0.00 0.00 85 1018.8
20260502111616 30 24 0.0 0.0 0.00 0.00 0.00 85 1018.9
20260502111111 30 24 0.0 0.0 0.00 0.00 0.00 84 1018.8
20260502110804 30 24 0.0 0.0 0.00 0.00 0.00 84 1018.8
20260502110755 30 24 0.0 0.0 0.00 0.00 0.00 84 1018.8
20260502105553 30 24 0.0 0.0 0.00 0.00 0.00 84 1018.7
20260502105046 30 24 0.0 0.0 0.00 0.00 0.00 84 1018.7
20260502104540 30 24 0.0 0.0 0.00 0.00 0.00 83 1018.8
20260502104034 30 24 0.0 0.0 0.00 0.00 0.00 83 1018.8
20260502103528 30 24 0.0 0.0 0.00 0.00 0.00 83 1018.8
20260502103022 30 24 0.0 0.0 0.00 0.00 0.00 83 1018.8
20260502102743 30 24 0.0 0.0 0.00 0.00 0.00 83 1018.9
20260502102011 30 24 0.0 0.0 0.00 0.00 0.00 83 1018.9
20260502101505 30 24 0.0 0.0 0.00 0.00 0.00 83 1018.9
20260502101216 30 24 0.0 0.0 0.00 0.00 0.00 83 1018.9
20260502100453 30 24 0.0 0.0 0.00 0.00 0.00 83 1018.9
20260502090846 31 0 0.0 1.0 0.00 0.00 0.00 83 1018.9
20260502090341 31 0 0.0 1.0 0.00 0.00 0.00 83 1018.8
20260502071129 33 0 0.0 0.0 0.00 0.00 0.00 76 1018.8
20260502070623 33 0 0.0 0.0 0.00 0.00 0.00 76 1018.8
20260502070339 33 0 0.0 0.0 0.00 0.00 0.00 76 1018.9
20260502065836 34 0 0.0 0.0 0.00 0.00 0.00 77 1018.9
20260502065105 34 0 0.0 0.0 0.00 0.00 0.00 77 1018.9
20260502064558 34 0 0.0 0.0 0.00 0.00 0.00 77 1019.0
20260502064053 34 0 0.0 0.0 0.00 0.00 0.00 75 1018.9
20260502063552 34 0 0.0 0.0 0.00 0.00 0.00 75 1019.0
20260502063053 34 0 0.0 0.0 0.00 0.00 0.00 75 1018.9
20260502062553 34 0 0.0 0.0 0.00 0.00 0.00 75 1018.9
20260502062051 34 24 0.0 0.0 0.00 0.00 0.00 75 1019.0
20260502061551 35 24 0.0 0.0 0.00 0.00 0.00 75 1019.0
20260502061050 35 24 0.0 0.0 0.00 0.00 0.00 74 1019.0
20260502060813 35 24 0.0 0.0 0.00 0.00 0.00 74 1019.0
20260502060049 35 24 0.0 0.0 0.00 0.00 0.00 74 1018.9
20260502055549 35 24 0.0 1.0 0.00 0.00 0.00 74 1018.9
20260502055049 35 25 0.0 1.0 0.00 0.00 0.00 74 1018.9
20260502054808 35 26 0.0 0.0 0.00 0.00 0.00 73 1018.9
20260502054048 35 32 0.0 0.0 0.00 0.00 0.00 73 1018.9
20260502053548 36 26 0.0 0.0 0.00 0.00 0.00 73 1019.0
20260502053049 36 0 0.0 0.0 0.00 0.00 0.00 73 1018.9
20260502052548 36 0 0.0 0.0 0.00 0.00 0.00 74 1018.8
20260502052049 36 0 0.0 0.0 0.00 0.00 0.00 74 1018.8
20260502051549 36 0 0.0 0.0 0.00 0.00 0.00 71 1018.8
20260502051049 36 24 0.0 0.0 0.00 0.00 0.00 72 1018.9
20260502050549 36 24 0.0 0.0 0.00 0.00 0.00 71 1018.9
20260502050315 36 24 0.0 0.0 0.00 0.00 0.00 69 1018.7
20260502045541 37 24 0.0 0.0 0.00 0.00 0.00 69 1018.7
20260502045035 37 24 0.0 0.0 0.00 0.00 0.00 69 1018.6
20260502044529 37 24 0.0 0.0 0.00 0.00 0.00 69 1018.7
20260502044022 37 24 0.0 1.0 0.00 0.00 0.00 70 1018.7
20260502043516 37 24 0.0 1.0 0.00 0.00 0.00 70 1018.7
20260502043010 37 24 0.0 1.0 0.00 0.00 0.00 71 1018.6
20260502042504 37 24 0.0 1.0 0.00 0.00 0.00 70 1018.7
20260502042000 38 24 0.0 1.0 0.00 0.00 0.00 68 1018.7
20260502041452 38 24 0.0 0.0 0.00 0.00 0.00 69 1018.7
20260502040947 38 24 0.0 0.0 0.00 0.00 0.00 69 1018.7
20260502040441 38 24 0.0 2.0 0.00 0.00 0.00 69 1018.6
20260502040424 38 24 0.0 2.0 0.00 0.00 0.00 69 1018.7
20260502035429 38 24 0.0 2.0 0.00 0.00 0.00 69 1018.6
20260502034923 39 24 0.0 2.0 0.00 0.00 0.00 67 1018.6
20260502034417 39 24 0.0 0.0 0.00 0.00 0.00 66 1018.6
20260502033911 39 24 0.0 0.0 0.00 0.00 0.00 67 1018.5
20260502033406 39 24 0.0 0.0 0.00 0.00 0.00 64 1018.6
20260502032858 39 24 0.0 0.0 0.00 0.00 0.00 64 1018.6
20260502032352 39 24 0.0 0.0 0.00 0.00 0.00 65 1018.6
20260502031847 39 24 0.0 1.0 0.00 0.00 0.00 65 1018.7
20260502031340 39 24 0.0 1.0 0.00 0.00 0.00 65 1018.6
20260502030834 39 24 0.0 0.0 0.00 0.00 0.00 64 1018.6
20260502030329 39 24 0.0 0.0 0.00 0.00 0.00 64 1018.6
20260502025822 39 24 0.0 0.0 0.00 0.00 0.00 66 1018.5
20260502025317 40 24 0.0 0.0 0.00 0.00 0.00 67 1018.5
20260502024810 40 24 0.0 0.0 0.00 0.00 0.00 69 1018.5
20260502024526 40 24 0.0 0.0 0.00 0.00 0.00 66 1018.5
20260502024032 40 24 0.0 0.0 0.00 0.00 0.00 66 1018.4
20260502023303 41 24 0.0 0.0 0.00 0.00 0.00 63 1018.5
20260502022801 41 24 0.0 1.0 0.00 0.00 0.00 62 1018.5
20260502022300 41 24 0.0 1.0 0.00 0.00 0.00 68 1018.5
20260502021800 42 24 0.0 1.0 0.00 0.00 0.00 63 1018.5
20260502021521 42 24 0.0 1.0 0.00 0.00 0.00 59 1018.5
20260502020757 43 24 0.0 1.0 0.00 0.00 0.00 54 1018.4